Total_Precipitation_Accumulation
0.03 0.03 0.02 0.01 0.01 0.00 0.00 0.00 0.00 0.00 0.00 0.01 0.02 0.02 0.01 0.02 0.01 0.00 0.00 0.00 0.00 0.00
0.08 0.07 0.03 0.02 0.02 0.01 0.01 0.00 0.00 0.01 0.00 0.00 0.01 0.03 0.02 0.01 0.01 0.01 0.01 0.00 0.00 0.00
0.09 0.07 0.05 0.03 0.02 0.00 0.01 0.01 0.01 0.01 0.02 0.01 0.01 0.03 0.03 0.01 0.00 0.00 0.00 0.00 0.00 0.00
0.16 0.12 0.12 0.08 0.04 0.01 0.01 0.03 0.05 0.02 0.02 0.03 0.02 0.01 0.03 0.02 0.01 0.00 0.00 0.00 0.00 0.00
0.37 0.25 0.21 0.18 0.08 0.04 0.03 0.05 0.08 0.05 0.02 0.02 0.02 0.02 0.01 0.02 0.01 0.00 0.00 0.00 0.00 0.00
0.59 0.42 0.35 0.17 0.17 0.07 0.07 0.05 0.10 0.09 0.03 0.02 0.03 0.03 0.02 0.00 0.00 0.01 0.00 0.00 0.00 0.00
0.45 0.51 0.46 0.25 0.25 0.18 0.08 0.09 0.07 0.15 0.08 0.01 0.02 0.03 0.02 0.00 0.00 0.00 0.00 0.00 0.00 0.00
0.16 0.43 0.37 0.22 0.27 0.29 0.16 0.15 0.05 0.14 0.10 0.03 0.01 0.01 0.02 0.01 0.00 0.00 0.00 0.00 0.00 0.00
0.14 0.21 0.21 0.27 0.26 0.21 0.19 0.19 0.07 0.06 0.07 0.03 0.01 0.00 0.00 0.00 0.00 0.00 0.00 0.00 0.00 0.00
0.24 0.27 0.24 0.21 0.20 0.11 0.13 0.11 0.05 0.04 0.02 0.02 0.01 0.00 0.00 0.00 0.00 0.00 0.00 0.00 0.00 0.00
0.33 0.35 0.32 0.18 0.13 0.05 0.05 0.04 0.02 0.03 0.01 0.00 0.01 0.00 0.00 0.00 0.00 0.00 0.00 0.00 0.00 0.00
0.42 0.39 0.29 0.21 0.13 0.07 0.04 0.03 0.02 0.02 0.00 0.00 0.01 0.01 0.01 0.01 0.00 0.00 0.00 0.00 0.00 0.00
0.42 0.36 0.24 0.17 0.16 0.09 0.06 0.02 0.02 0.02 0.01 0.01 0.01 0.01 0.01 0.01 0.01 0.00 0.00 0.00 0.00 0.00
0.27 0.28 0.19 0.13 0.13 0.06 0.03 0.02 0.02 0.02 0.02 0.01 0.01 0.02 0.02 0.01 0.01 0.01 0.01 0.01 0.01 0.01